Powrót do katalogu

COSMOS 1366

AktywnyMilitariaGEO
NORAD 13177·PAYLOAD·🇷🇺 Russia

Wystrzelony May 17, 1982 z Baikonur Cosmodrome

Loading…

TLE

ŚwieżeSource: Space-Track

Epoka: Sep 14, 2026, 15:54 UTC

1 13177U 82044A   26257.66263473 -.00000171  00000-0  00000-0 0  9996
2 13177   8.1005 296.4733 0006809 133.2311 244.6611  1.00268828134519

Śledź COSMOS 1366 w czasie rzeczywistym z AllMySat

Download on the App Store